TIME,DELAY(SENSOR),PRES,OXYGEN,RAWTEMP,T(OPTODE),TCPHASE,FLUOR,BETA(BETA700),BETA(BETA412),BETA(BETA440),CDOM,C(CSC),ED(ED411.90),ED(ED443.80),ED(ED489.40),ED(ED554.70),LU(LU412.20),LU(LU443.80),LU(LU489.40),LU(LU555.00),COMP,TILTX,TILTY,CHECK
1345845458,5806,866.2500000000000000,171.2631072998047000,380.5627136230469000,11.1944198608398440,37.8216896057128900,52,99,99,79,79,13816,2146956818,2147517046,2147279707,2147499712,2147088621,2146935378,2147693869,2147120438,2903,-2,8,51574
1345849054,5810,988.0999755859375000,178.9992065429687500,470.8918151855469000,8.4298238754272460,38.7661781311035160,52,103,100,79,79,13804,2146957604,2147518637,2147289481,2147513545,2147088905,2146927058,2147712521,2147116672,1831,-2,8,33934
1345852654,5806,1003.3599853515625000,186.2873992919922000,482.4151000976562500,8.0740413665771480,38.4710693359375000,53,103,99,79,80,13802,2146958820,2147515538,2147292864,2147516681,2147093330,2146927040,2147709321,2147118345,3045,-2,8,55038
1345856254,5807,1008.5200195312500000,188.7164001464843800,484.8442993164062500,7.9989318847656250,38.3528289794921900,53,107,101,79,80,13799,2146958912,2147517357,2147294784,2147517741,2147090185,2146923648,2147715072,2147117184,178,-2,8,18251
1345859854,5808,1005.6900024414062000,194.5637969970703000,487.8460998535156000,7.9060721397399900,38.0284805297851560,52,101,99,79,79,13802,2146959414,2147518756,2147290770,2147518930,2147090587,2146925184,2147718235,2147116534,439,-2,8,18631
1345863454,5806,1009.7800292968750000,193.9418945312500000,489.4620056152344000,7.8560609817504880,38.0956802368164060,52,101,100,80,80,13798,2146958226,2147519890,2147288914,2147516845,2147093403,2146928365,2147719232,2147118592,3389,-2,8,39228
1345867054,5806,1013.6599731445312000,195.3668060302734400,490.1828918457031000,7.8337430953979490,38.0180702209472660,53,100,100,103,80,13796,2146959524,2147516032,2147289938,2147519451,2147091090,2146926253,2147718829,2147117906,3498,-2,8,23985
1345870654,5807,1011.1900024414062000,195.9537963867187500,490.8638000488281000,7.8126602172851560,37.9921607971191400,53,104,99,81,80,13799,2146959488,2147518628,2147290230,2147518665,2147089124,2146927524,2147717248,2147117568,2694,-2,8,56013
1345874254,5807,1013.7299804687500000,197.0160980224609400,490.6976928710937500,7.8178029060363770,37.9228591918945300,52,102,99,79,80,13798,2146958957,2147520365,2147291190,2147519753,2147091044,2146927305,2147716553,2147115712,2936,-2,8,5697
1345877854,5803,1015.4500122070312000,196.4654998779297000,490.4690856933594000,7.8248801231384280,37.9536705017089840,53,101,100,78,80,13795,2146957723,2147519268,2147292489,2147521453,2147091940,2146928768,2147717723,2147118756,3068,-2,8,2085
1345881454,5804,1023.7600097656250000,196.4662017822265600,490.4088134765625000,7.8267469406127930,37.9519004821777340,52,102,98,79,80,13795,2146961051,2147515227,2147293193,2147519158,2147092096,2146927542,2147715556,2147118253,3578,-2,8,21472
1345885054,5802,1017.0100097656250000,197.0341033935547000,490.7724914550781000,7.8154878616333010,37.9230308532714840,53,103,100,78,80,13794,2146958034,2147514880,2147294235,2147519067,2147089344,2146925229,2147717339,2147117129,3463,-2,8,27962
1345888654,5805,1020.1300048828125000,196.1334991455078000,490.3659057617187500,7.8280768394470215,37.9728584289550800,52,104,99,79,79,13793,2146958052,2147515446,2147291629,2147519360,2147091611,2146924854,2147723657,2147114806,3539,-2,8,16855
1345892254,5804,1028.2199707031250000,194.7738037109375000,490.0437011718750000,7.8380517959594730,38.0531501770019500,52,106,99,79,80,13789,2146956096,2147516781,2147293476,2147517888,2147092653,2146928173,2147720246,2147117074,3516,-2,8,63262
1345895854,5806,1026.1400146484375000,196.2839965820312500,490.1003112792969000,7.8362989425659180,37.9588088989257800,53,103,98,80,80,13792,2146958180,2147516891,2147292388,2147514989,2147089673,2146924571,2147717668,2147114614,583,-2,8,45887
1345899454,5806,1027.3900146484375000,195.3327026367187500,489.8309936523437500,7.8446378707885740,38.0138206481933600,52,103,98,79,80,13788,2146958400,2147515693,2147291611,2147519094,2147089051,2146920649,2147715830,2147115776,544,-2,8,63458
1345903054,5805,1028.8699951171875000,194.0816955566406200,490.1336059570312500,7.8352699279785160,38.0984992980957000,53,101,102,85,81,13791,2146958564,2147519140,2147292544,2147518418,2147088182,2146925622,2147719277,2147114560,3568,-2,8,57913
1345906654,5805,1026.0300292968750000,193.3968963623047000,490.3460998535156000,7.8286900520324710,38.1457710266113300,53,101,100,79,80,13786,2146959497,2147516242,2147293805,2147519268,2147094473,2146924544,2147716214,2147116434,2976,-2,8,17824
1345910254,5804,1021.3099975585938000,194.2444000244140600,490.4725036621094000,7.8247780799865720,38.0940208435058600,53,101,99,80,80,13790,2146959177,2147518134,2147289106,2147516690,2147093147,2146923465,2147715236,2147115766,3183,-2,8,30927
1345913854,5806,1022.2600097656250000,197.6510009765625000,492.8551025390625000,7.7509889602661130,37.9210205078125000,52,101,98,79,80,13783,2146962212,2147518646,2147291876,2147519707,2147088594,2146922797,2147715318,2147119360,3234,-2,8,23478
1345917454,5807,1020.5499877929688000,198.3916015625000000,493.2661132812500000,7.7382578849792480,37.8811302185058600,53,105,99,82,80,13790,2146959332,2147518729,2147291282,2147516754,2147089874,2146924973,2147717705,2147118080,125,-2,8,53129
1345921054,5807,1024.3000488281250000,198.3439025878906200,493.1146850585937500,7.7429480552673340,37.8814811706543000,51,102,99,78,80,13787,2146959232,2147516745,2147291721,2147516790,2147091236,2146922395,2147720448,2147118034,454,-2,8,60064
1345924654,5807,1024.9499511718750000,196.2944030761718800,492.4399108886719000,7.7638478279113770,37.9985389709472660,52,102,99,79,79,13792,2146956900,2147514870,2147290907,2147518628,2147089801,2146921910,2147716626,2147118006,80,-1,8,53395
1345928254,5809,1032.9799804687500000,193.7675933837890600,490.4820861816406000,7.8244791030883790,38.1247596740722660,52,102,99,79,79,13792,2146957403,2147514825,2147292096,2147517494,2147089362,2146924452,2147718619,2147118473,129,-2,8,47831
1345931854,5805,1029.8699951171875000,192.1799011230468800,490.8792114257812500,7.8121848106384280,38.2331199645996100,53,102,101,80,80,13791,2146960685,2147517065,2147293860,2147517449,2147088576,2146927442,2147715931,2147117430,3345,-2,8,59536
1345935454,5806,1025.6199951171875000,195.5404968261718800,492.4128112792969000,7.7646889686584470,38.0460586547851560,52,106,99,80,79,13789,2146959990,2147519954,2147294729,2147518171,2147091392,2146932498,2147718774,2147113846,741,-2,8,52486
1345939054,5809,1024.5000000000000000,196.8123016357422000,491.9508056640625000,7.7789969444274900,37.9570808410644500,52,103,99,79,81,13785,2146960356,2147518848,2147292653,2147517942,2147090569,2146925787,2147715757,2147117778,57,-2,8,60671
1345942654,5805,1027.2399902343750000,198.4821929931640600,493.3534851074219000,7.7355499267578125,37.8774414062500000,52,103,98,79,80,13784,2146960448,2147515620,2147293659,2147519360,2147090980,2146923309,2147717211,2147120612,840,-2,8,15240
1345946254,5808,1027.6500244140625000,197.8968963623047000,493.7749938964844000,7.7224898338317870,37.9212493896484400,52,101,100,78,81,13784,2146958509,2147515602,2147291968,2147517312,2147091885,2146921792,2147715136,2147119744,56,-2,8,34020
1345949854,5804,1026.6700439453125000,196.6340026855468800,493.4407043457031000,7.7328472137451170,37.9947700500488300,52,101,100,80,81,13784,2146958189,2147517046,2147291858,2147521709,2147089691,2146923940,2147721124,2147118976,3430,-2,8,34340
1345953454,5806,1027.5899658203125000,198.0581054687500000,493.8728942871094000,7.7194581031799320,37.9129295349121100,52,102,99,79,80,13781,2146961472,2147513481,2147294189,2147518966,2147089554,2146925632,2147715730,2147118884,3295,-2,8,49224
1345957054,5808,1029.0000000000000000,196.6770019531250000,493.6470947265625000,7.7264537811279300,37.9949684143066400,53,100,99,79,80,13780,2146959963,2147512640,2147290953,2147521307,2147091081,2146925485,2147717714,2147118637,242,-2,8,63646
1345960654,5809,1026.3599853515625000,196.9470062255859400,494.1004028320312500,7.7124071121215820,37.9864082336425800,51,102,99,79,80,13782,2146958354,2147512941,2147294134,2147517970,2147088521,2146929590,2147717092,2147117376,14,-2,8,37226
1345964254,5805,1032.3900146484375000,198.0381011962890600,493.1196899414062500,7.7427911758422850,37.9009208679199200,53,101,100,79,81,13780,2146959588,2147515236,2147294116,2147519524,2147091757,2146923382,2147718025,2147117046,2375,-2,8,30542
1345967854,5806,1037.9200439453125000,195.0323028564453000,490.3952941894531000,7.8271670341491700,38.0431213378906250,53,104,98,79,80,13777,2146958061,2147513179,2147292114,2147517385,2147090953,2146924909,2147715529,2147115584,3003,-2,8,17079
1345971454,5806,1038.2399902343750000,193.4230957031250000,490.1133117675781000,7.8358960151672360,38.1398887634277340,52,106,98,79,80,13777,2146962605,2147516333,2147291318,2147518765,2147089362,2146920740,2147716315,2147117348,2988,-2,8,25458
1345975054,5805,1029.4599609375000000,193.0868988037109400,487.9237976074219000,7.9036669731140140,38.1241798400878900,53,102,100,79,81,13781,2146961270,2147513728,2147291501,2147518838,2147089755,2146927771,2147716370,2147116726,3559,-1,8,35272
1345978654,5809,1031.3499755859375000,192.5243988037109400,488.4314880371094000,7.8879570960998535,38.1680908203125000,51,101,99,78,80,13771,2146959460,2147517732,2147289517,2147520777,2147090907,2146928091,2147716068,2147117760,81,-2,8,50178
1345982254,5805,1026.3299560546875000,193.3486022949218800,489.6037902832031000,7.8516697883605960,38.1363792419433600,52,102,99,79,81,13768,2146958153,2147517312,2147288192,2147519424,2147092489,2146925074,2147716004,2147117211,200,-2,8,33233
1345985854,5804,1029.3399658203125000,192.8930969238281200,489.4612121582031000,7.8560848236083980,38.1629981994628900,52,103,99,80,79,13771,2146958720,2147513572,2147293668,2147519817,2147087789,2146920768,2147716516,2147116928,416,-2,8,627
1345988156,5807,1027.8299560546875000,193.4062042236328000,489.8241882324219000,7.8448481559753420,38.1362190246582000,53,105,100,78,80,13708,2146957476,2147520365,2147290276,2147516315,2147088420,2146926189,2147715044,2147113709,430,-2,8,61133
